Location: Praha
(50.0830°N, 14.4670°E)
Time: 03:40:47
(UTC+02:00)

ISS - Pass Details

Date: 06 July 2020
Orbit: 417 x 421 km, 51.6° (Epoch: 08 July)

Event Time Altitude Azimuth Distance (km) Brightness Sun altitude
Exits shadow 01:50:53 19° 124° (SE) 1,079 -1.9 -16.6°
Drops below altitude 10° 01:52:41 10° 93° (E) 1,496 -0.9 -16.6°
Sets 01:55:09 0° 76° (ENE) 2,363 0.4 -16.5°
